Location: �terpigny
(49.8910°N, 2.9249°E)
Time: 10:35:02
(UTC+00:00)

CSL-04 Debris - Pass Details

Date: 24 October 2021
Orbit: 827 x 847 km, 98.9° (Epoch: 06 December)

Event Time Altitude Azimuth Distance (km) Brightness Sun altitude
Exits shadow 18:44:16 26° 146° (SE) 1,574 5.3 -20.7°
Maximum altitude 18:47:19 67° 70° (ENE) 902 4.1 -21.2°
Drops below altitude 10° 18:52:43 10° 349° (N) 2,459 6.8 -22.1°
Sets 18:55:06 0° 347° (NNW) 3,401 7.6 -22.4°
